N0TRB Weather Reports


time (UTC)temp
C
wind
direction
speed
KPH
gust
KPH
rain 1hr
cm
rain 24hr
cm
rain mn
cm
humidity
%
barometer
mb
20260906191509 25 137 0.0 0.0 0.00 0.00 0.00 78 1015.7
20260906190011 25 148 0.0 0.0 0.00 0.00 0.00 78 1015.9
20260906184506 25 232 0.0 0.0 0.00 0.00 0.00 78 1015.8
20260906183008 25 174 0.0 0.0 0.00 0.00 0.00 80 1015.7
20260906181516 24 138 0.0 0.0 0.00 0.00 0.00 81 1015.8
20260906180007 23 150 0.0 0.0 0.00 0.00 0.00 82 1016.0
20260906174506 23 136 0.0 0.0 0.00 0.00 0.00 82 1016.0
20260906173004 24 153 0.0 0.0 0.00 0.00 0.00 80 1016.0
20260906171504 25 107 0.0 0.0 0.00 0.00 0.00 79 1016.0
20260906170009 25 137 0.0 0.0 0.00 0.00 0.00 79 1016.2
20260906164503 25 139 0.0 0.0 0.00 0.00 0.00 80 1016.2
20260906163002 25 156 0.0 0.0 0.00 0.00 0.00 79 1016.2
20260906161504 25 116 0.0 0.0 0.00 0.00 0.00 79 1016.3
20260906160001 25 160 0.0 0.0 0.00 0.00 0.00 80 1016.2
20260906154501 25 144 0.0 0.0 0.00 0.00 0.00 79 1016.5
20260906153104 25 163 0.0 0.0 0.00 0.00 0.00 79 1016.5
20260906153003 25 146 0.0 0.0 0.00 0.00 0.00 79 1016.5
20260906151559 25 80 0.0 0.0 0.00 0.00 0.00 80 1016.6
20260906150056 25 145 0.0 0.0 0.00 0.00 0.00 82 1016.6
20260906144554 24 149 0.0 0.0 0.00 0.00 0.00 83 1016.4
20260906143051 23 155 0.0 0.0 0.00 0.00 0.00 86 1016.4
20260906141544 22 142 0.0 0.0 0.00 0.00 0.00 89 1016.3
20260906140048 22 114 0.0 0.0 0.00 0.00 0.00 91 1016.6
20260906134537 21 149 0.0 0.0 0.00 0.00 0.00 94 1016.5
20260906133038 21 129 0.0 0.0 0.00 0.00 0.00 96 1016.4
20260906131534 20 167 0.0 0.0 0.00 0.00 0.00 96 1016.1
20260906130034 19 145 0.0 0.0 0.00 0.00 0.00 95 1016.1
20260906124532 18 145 0.0 0.0 0.00 0.00 0.00 95 1016.2
20260906123034 18 144 0.0 0.0 0.00 0.00 0.00 95 1016.2
20260906121531 18 145 0.0 0.0 0.00 0.00 0.00 94 1016.2
20260906120028 18 145 0.0 0.0 0.00 0.00 0.00 94 1016.1
20260906114539 18 144 0.0 0.0 0.00 0.00 0.00 94 1016.0
20260906113027 19 145 0.0 0.0 0.00 0.00 0.00 94 1015.8
20260906111528 19 145 0.0 0.0 0.00 0.00 0.00 94 1015.7
20260906110022 19 145 0.0 0.0 0.00 0.00 0.00 94 1015.7
20260906104520 20 145 0.0 0.0 0.00 0.00 0.00 94 1015.6
20260906103017 20 145 0.0 0.0 0.00 0.00 0.00 94 1015.3
20260906101514 20 144 0.0 0.0 0.00 0.00 0.00 93 1015.4
20260906100017 20 145 0.0 0.0 0.00 0.00 0.00 93 1015.5
20260906094511 20 145 0.0 0.0 0.00 0.00 0.00 93 1015.2
20260906093011 21 145 0.0 0.0 0.00 0.00 0.00 93 1014.8
20260906091516 20 144 0.0 0.0 0.00 0.00 0.00 94 1014.8
20260906090009 20 178 0.0 0.0 0.00 0.00 0.00 93 1014.8
20260906084509 20 178 0.0 0.0 0.00 0.00 0.00 93 1014.9
20260906083011 20 179 0.0 0.0 0.00 0.00 0.00 93 1014.9
20260906081507 20 178 0.0 0.0 0.00 0.00 0.00 92 1014.8
20260906080008 20 179 0.0 0.0 0.00 0.00 0.00 92 1014.8
20260906074505 21 178 0.0 0.0 0.00 0.00 0.00 92 1014.6
20260906073004 21 179 0.0 0.0 0.00 0.00 0.00 91 1014.9
20260906071500 21 178 0.0 0.0 0.00 0.00 0.00 92 1014.7
20260906070058 21 178 0.0 0.0 0.00 0.00 0.00 91 1015.2
20260906064602 21 178 0.0 0.0 0.00 0.00 0.00 91 1015.2
20260906063057 21 178 0.0 0.0 0.00 0.00 0.00 91 1015.3
20260906061555 21 178 0.0 0.0 0.00 0.00 0.00 91 1015.1
20260906060137 21 179 0.0 0.0 0.00 0.00 0.00 91 1015.0
20260906054554 21 180 0.0 0.0 0.00 0.00 0.00 91 1015.1
20260906053054 21 180 0.0 0.0 0.00 0.00 0.00 91 1015.1
20260906051551 21 180 0.0 0.0 0.00 0.00 0.00 90 1015.1
20260906044548 22 181 0.0 0.0 0.00 0.00 0.00 89 1015.2
20260906043048 22 180 0.0 0.0 0.00 0.00 0.00 90 1015.3
20260906041547 22 180 0.0 0.0 0.00 0.00 0.00 89 1015.5
20260906040047 22 180 0.0 0.0 0.00 0.00 0.00 88 1015.4
20260906034556 22 180 0.0 0.0 0.00 0.00 0.00 87 1015.5
20260906033047 23 180 0.0 0.0 0.00 0.00 0.00 86 1015.5
20260906031608 23 180 0.0 0.0 0.00 0.00 0.00 85 1015.6
20260906030044 23 180 0.0 0.0 0.00 0.00 0.00 84 1015.7
20260906024554 24 180 0.0 0.0 0.00 0.00 0.00 84 1015.4
20260906023104 24 186 0.0 0.0 0.00 0.00 0.00 83 1015.6
20260906021543 23 186 0.0 0.0 0.00 0.00 0.00 83 1015.3
20260906020049 23 186 0.0 0.0 0.00 0.00 0.00 83 1014.8
20260906014542 23 186 0.0 0.0 0.00 0.00 0.00 82 1014.5
20260906013041 23 120 0.0 0.0 0.00 0.00 0.00 81 1013.7
20260906011541 24 120 0.0 0.0 0.00 0.00 0.00 79 1013.3
20260906010041 25 120 0.0 0.0 0.00 0.00 0.00 78 1013.0
20260906004547 25 120 0.0 0.0 0.00 0.00 0.00 75 1013.0
20260906003047 26 120 0.0 0.0 0.00 0.00 0.00 73 1012.9
20260906001544 26 120 0.0 0.0 0.00 0.00 0.00 71 1012.6
20260906000038 27 130 0.0 0.0 0.00 0.00 0.00 69 1012.6
20260905234539 28 101 0.0 0.0 0.00 0.00 0.00 67 1013.0
20260905233046 28 99 0.0 0.0 0.00 0.00 0.00 67 1012.9
20260905231539 28 111 0.0 0.0 0.00 0.00 0.00 67 1012.5
20260905230036 28 123 0.0 0.0 0.00 0.00 0.00 66 1012.7
20260905224536 29 105 0.0 0.0 0.00 0.00 0.00 66 1012.5
20260905223036 30 208 0.0 0.0 0.00 0.00 0.00 65 1012.3
20260905221541 30 32 0.0 0.0 0.00 0.00 0.00 63 1012.2
20260905220034 31 164 0.0 0.0 0.00 0.00 0.00 60 1012.4
20260905214531 30 121 0.0 0.0 0.00 0.00 0.00 61 1012.6
20260905213031 30 111 0.0 0.0 0.00 0.00 0.00 62 1012.8
20260905211529 30 333 0.0 0.0 0.00 0.00 0.00 64 1012.5
20260905210027 30 113 0.0 0.0 0.00 0.00 0.00 65 1012.9
20260905204526 30 88 0.0 0.0 0.00 0.00 0.00 66 1013.1
20260905203022 30 144 0.0 0.0 0.00 0.00 0.00 67 1013.5
20260905201521 29 121 0.0 0.0 0.00 0.00 0.00 68 1013.8
20260905200016 28 102 0.0 0.0 0.00 0.00 0.00 71 1014.3
20260905194514 28 54 0.0 0.0 0.00 0.00 0.00 72 1014.4
20260905193011 27 93 0.0 0.0 0.00 0.00 0.00 75 1014.5